Powrót do katalogu

CZ-4 DEB

AktywnySSO
NORAD 26222·DEBRIS·🇨🇳 China

Wystrzelony Oct 14, 1999 z Taiyuan Satellite Launch Center

Loading…

Następne Przeloty (najbliższe 24 godziny)

TLE

ŚwieżeSource: Space-Track

Epoka: Sep 14, 2026, 14:23 UTC

1 26222U 99057DL  26257.59949011  .00000656  00000-0  15853-3 0  9996
2 26222  98.4699 319.9975 0068383 169.2489 191.0188 14.55116511396771

Śledź CZ-4 DEB w czasie rzeczywistym z AllMySat

Download on the App Store